Hourly Data

Hourly Data Report for March 11, 2012

All times are specified in Local Standard Time (LST). Add 1 hour to adjust for Daylight Saving Time where and when it is observed.

Metadata including Station Name, Province, Latitude, Longitude, Elevation, Climate ID, WMO ID, TC ID
ST-JOVITE
QUEBEC
Latitude: 46°04'49.000" N Longitude: 74°33'21.000" W Elevation: 238.50 m
Climate ID: 703GDKB WMO ID: 71376 TC ID: WJT
Hourly Data Report for March 11, 2012
Temp Definition
°C

Dew Point Temp Definition
°C

Rel Hum Definition
%

Wind Dir Definition
10's deg
Wind Spd Definition
km/h

Visibility Definition
km

Stn Press Definition
kPa

Hmdx Definition

Wind Chill Definition

Weather Definition

TIME
00:00 -7.5 -9.1 88 12 2 99.71 -9 LegendNANA
01:00 -7.9 -9.1 91 8 2 99.63 -9 LegendNANA
02:00 -4.5 -7.9 77 13 6 99.54 -7 LegendNANA
03:00 -4.1 -7.9 75 22 4 99.48 -6 LegendNANA
04:00 -3.7 -8.1 71 14 4 99.41 -5 LegendNANA
05:00 -3.8 -7.3 77 24 2 99.39 -5 LegendNANA
06:00 -6.1 -8.1 86   0 99.40 LegendNANA
07:00 -7.3 -8.4 92 6 2 99.40 -8 LegendNANA
08:00 -3.6 -6.5 80 25 2 99.42 -4 LegendNANA
09:00 -0.1 -6.3 63 22 4 99.42 -1 LegendNANA
10:00 1.8 -5.5 58 20 6 99.37 LegendNANA
11:00 4.0 -4.8 53 23 6 99.32 LegendNANA
12:00 5.5 -4.2 50 22 9 99.28 LegendNANA
13:00 7.1 -3.3 48 20 9 99.22 LegendNANA
14:00 7.3 -3.3 47 19 13 99.18 LegendNANA
15:00 7.7 -2.7 48 19 7 99.18 LegendNANA
16:00 8.2 -2.1 48 20 7 99.17 LegendNANA
17:00 8.0 -1.4 51 19 6 99.18 LegendNANA
18:00 2.2 -1.9 74 9 4 99.21 LegendNANA
19:00 -0.7 -2.6 87 7 2 99.21 -1 LegendNANA
20:00 -1.7 -2.8 92 7 2 99.22 -2 LegendNANA
21:00 -1.9 -2.4 96 6 4 99.25 -3 LegendNANA
22:00 -2.5 -2.9 97 8 2 99.26 -3 LegendNANA
23:00 -2.8 -3.1 98 7 2 99.28 -4 LegendNANA

Notes on Data Quality.

Legend
  • M = Missing
  • E = Estimated
  • NA = Not Available
  • ‡ = Partner data that is not subject to review by the National Climate Archives